千帆星座-7 (QIANFAN-7)

基本信息
目录编号:
60385
目录名称:
QIANFAN-7
国际标识:
2024-140G
轨道中心:
EARTH
卫星名称:
千帆星座-7 (QIANFAN-7)
卫星全名:
千帆星座-7 (QIANFAN-7)
卫星状态:
在轨 (已飞行438 天)
发射日期:
2024-08-06 UTC
国别 :
中国 (CN)
星等 :
--
轨道信息
数据来源 国际轨道数据
星历时间: 2025-10-18T08:30:46+0800
5小时前
查看轨道信息
半长轴: 7177.973km
偏心率: 0.0013478
轨道倾角: 88.975°
近地点辐角 216.998°
升交点赤经 300.279°
平近点角 143.028°
近地点: 790.163km
远地点: 809.513km
周期: 100.870分钟
每日圈数: 14.275788
详细信息
运营商:
上海垣信卫星科技有限公司
运营商所在国:
中国
使用方式:
暂无
卫星简介
千帆星座,也被称为“G60星链”计划,是中国版“星链”的重要组成部分,旨在打造一个由1.4万多颗低轨宽频多媒体卫星构成的庞大星座。千帆星座计划由上海垣信卫星科技有限公司负责实施,于2023年启动建设。该项目是我国第二个低轨卫星大星座,旨在通过构建庞大的卫星网络,为全球用户提供高质量的通信和宽带互联网服务。
2D轨道图
3D轨道图
轨道高度分析图
轨道倾角分析图
轨道综合分析图
查看轨道综合分析图